KMADALTO1 Weather Reports


Display with metric or nautical units.
time (UTC)temp
F
wind
direction
speed
MPH
gust
MPH
rain 1hr
in
rain 24hr
in
rain mn
in
humidity
%
barometer
mb
20260510153057 61 240 3.0 7.0 0.00 0.37 0.00 63 1012.5
20260510152549 61 245 4.0 9.0 0.00 0.37 0.00 63 1012.5
20260510152048 60 145 4.0 9.0 0.00 0.37 0.00 62 1012.4
20260510151553 60 237 4.0 8.0 0.00 0.37 0.00 63 1012.4
20260510151049 60 284 2.0 8.0 0.00 0.37 0.00 62 1012.3
20260510150549 60 256 3.0 9.0 0.00 0.37 0.00 62 1012.3
20260510150057 60 265 2.0 9.0 0.00 0.37 0.00 61 1012.4
20260510145549 59 277 4.0 11.0 0.00 0.43 0.00 61 1012.2
20260510145049 59 298 4.0 13.0 0.00 0.43 0.00 61 1012.3
20260510144610 59 312 6.0 13.0 0.00 0.43 0.00 60 1012.2
20260510144050 59 304 5.0 11.0 0.00 0.43 0.00 59 1012.1
20260510143550 58 301 4.0 10.0 0.00 0.43 0.00 58 1012.2
20260510143108 58 267 5.0 11.0 0.00 0.43 0.00 58 1012.4
20260510142549 58 270 6.0 11.0 0.00 0.43 0.00 57 1012.1
20260510142053 57 288 2.0 8.0 0.00 0.43 0.00 54 1012.1
20260510141603 57 316 3.0 9.0 0.00 0.43 0.00 50 1012.1
20260510141048 56 309 3.0 9.0 0.00 0.43 0.00 46 1012.2
20260510140549 55 274 1.0 8.0 0.00 0.43 0.00 41 1012.3
20260510140056 54 271 3.0 9.0 0.00 0.43 0.00 38 1012.3
20260510135549 54 263 3.0 9.0 0.00 0.44 0.00 33 1012.4
20260510135049 53 292 1.0 8.0 0.00 0.44 0.00 26 1012.3
20260510134612 53 253 4.0 8.0 0.00 0.44 0.00 24 1012.3
20260510134049 53 246 2.0 6.0 0.00 0.44 0.00 21 1012.4
20260510133549 53 0 0.0 8.0 0.00 0.44 0.00 18 1012.3
20260510133055 52 267 2.0 8.0 0.00 0.44 0.00 16 1012.4
20260510132549 52 268 3.0 8.0 0.00 0.44 0.00 16 1012.4
20260510132050 51 275 0.0 4.0 0.00 0.44 0.00 15 1012.3
20260510131550 51 277 0.0 7.0 0.00 0.44 0.00 15 1012.3
20260510131049 51 0 2.0 7.0 0.00 0.44 0.00 15 1012.4
20260510130549 51 298 1.0 5.0 0.00 0.44 0.00 14 1012.4
20260510130050 50 0 0.0 5.0 0.00 0.44 0.00 14 1012.3
20260510125548 50 0 0.0 0.0 0.00 0.46 0.00 15 1012.3
20260510125051 49 0 0.0 0.0 0.00 0.46 0.00 15 1012.2
20260510124602 49 0 0.0 0.0 0.00 0.46 0.00 15 1012.2
20260510124051 49 0 0.0 0.0 0.00 0.46 0.00 15 1012.2
20260510123551 49 0 0.0 0.0 0.00 0.46 0.00 15 1012.1
20260510123057 49 0 0.0 0.0 0.00 0.46 0.00 16 1012.2
20260510122550 48 0 0.0 0.0 0.00 0.46 0.00 16 1012.1
20260510122051 48 0 0.0 0.0 0.00 0.46 0.00 16 1012.0
20260510121553 48 0 0.0 0.0 0.00 0.46 0.00 16 1012.0
20260510121054 48 0 0.0 0.0 0.00 0.46 0.00 16 1011.9
20260510120551 48 0 0.0 0.0 0.00 0.46 0.00 16 1012.0
20260510120058 48 0 0.0 0.0 0.00 0.46 0.00 16 1012.0
20260510115551 48 0 0.0 0.0 0.00 0.49 0.00 16 1012.0
20260510115051 48 0 0.0 0.0 0.00 0.49 0.00 16 1012.1
20260510114557 48 0 0.0 0.0 0.00 0.49 0.00 16 1012.1
20260510114052 47 0 0.0 0.0 0.00 0.49 0.00 17 1012.1
20260510113551 47 0 0.0 0.0 0.00 0.49 0.00 17 1012.3
20260510113101 47 0 0.0 0.0 0.00 0.49 0.00 17 1012.2
20260510112551 47 0 0.0 0.0 0.00 0.49 0.00 17 1012.2
20260510112051 47 0 0.0 0.0 0.00 0.49 0.00 17 1012.3
20260510111604 47 0 0.0 0.0 0.00 0.49 0.00 17 1012.1
20260510111050 47 0 0.0 0.0 0.00 0.49 0.00 17 1012.1
20260510110555 47 0 0.0 0.0 0.00 0.49 0.00 17 1012.0
20260510110054 47 0 0.0 0.0 0.00 0.49 0.00 17 1012.0
20260510105551 47 0 0.0 0.0 0.00 0.56 0.00 17 1011.9
20260510105052 46 0 0.0 0.0 0.00 0.56 0.00 18 1011.8
20260510104612 46 0 0.0 0.0 0.00 0.56 0.00 18 1011.8
20260510104054 46 0 0.0 0.0 0.00 0.56 0.00 18 1011.6
20260510103555 46 0 0.0 0.0 0.00 0.56 0.00 18 1011.6
20260510103053 46 0 0.0 0.0 0.00 0.56 0.00 18 1011.4
20260510102551 46 0 0.0 0.0 0.00 0.56 0.00 18 1011.4
20260510102051 46 0 0.0 0.0 0.00 0.56 0.00 18 1011.3
20260510101553 46 0 0.0 0.0 0.00 0.56 0.00 18 1011.1
20260510101054 46 0 0.0 0.0 0.00 0.56 0.00 18 1011.2
20260510100555 46 0 0.0 0.0 0.00 0.56 0.00 18 1011.1
20260510100059 46 0 0.0 0.0 0.00 0.56 0.00 18 1011.1
20260510095553 46 0 0.0 0.0 0.00 0.61 0.00 18 1011.2
20260510095050 46 0 0.0 0.0 0.00 0.61 0.00 18 1011.1
20260510094552 46 0 0.0 0.0 0.00 0.61 0.00 18 1011.0
20260510094051 46 0 0.0 0.0 0.00 0.61 0.00 19 1010.7
20260510093555 46 0 0.0 0.0 0.00 0.61 0.00 19 1010.6
20260510093057 46 0 0.0 0.0 0.00 0.61 0.00 19 1010.7
20260510092551 45 0 0.0 0.0 0.00 0.61 0.00 19 1010.7
20260510092054 45 0 0.0 0.0 0.00 0.61 0.00 19 1010.6
20260510091554 45 0 0.0 0.0 0.00 0.61 0.00 19 1010.6
20260510091050 45 0 0.0 0.0 0.00 0.61 0.00 19 1010.4
20260510090551 45 0 0.0 0.0 0.00 0.61 0.00 19 1010.3
20260510090110 45 0 0.0 0.0 0.00 0.61 0.00 19 1010.1
20260510085554 45 0 0.0 0.0 0.00 0.62 0.00 19 1010.3
20260510085051 45 0 0.0 0.0 0.00 0.62 0.00 19 1010.4
20260510084553 45 0 0.0 0.0 0.00 0.62 0.00 19 1010.3
20260510084051 45 0 0.0 0.0 0.00 0.62 0.00 19 1010.6
20260510083551 45 0 0.0 0.0 0.00 0.62 0.00 19 1010.5
20260510083051 45 0 0.0 0.0 0.00 0.62 0.00 19 1010.5
20260510082555 45 0 0.0 0.0 0.00 0.62 0.00 20 1010.5
20260510082051 45 0 0.0 0.0 0.00 0.62 0.00 20 1010.9
20260510081606 45 0 0.0 0.0 0.00 0.62 0.00 20 1010.8
20260510081051 45 0 0.0 0.0 0.00 0.62 0.00 20 1010.9
20260510080551 45 0 0.0 0.0 0.00 0.62 0.00 20 1011.0
20260510080050 45 0 0.0 0.0 0.00 0.62 0.00 20 1011.0
20260510075550 45 0 0.0 0.0 0.00 0.62 0.00 20 1011.0
20260510075050 45 0 0.0 0.0 0.00 0.62 0.00 20 1011.2
20260510074559 45 0 0.0 0.0 0.00 0.62 0.00 20 1011.1
20260510074051 45 0 0.0 0.0 0.00 0.62 0.00 20 1011.2
20260510073550 45 0 0.0 0.0 0.00 0.62 0.00 20 1011.3
20260510073055 45 0 0.0 0.0 0.00 0.62 0.00 20 1011.2
20260510072550 45 0 0.0 0.0 0.00 0.62 0.00 20 1011.1
20260510072052 45 0 0.0 0.0 0.00 0.62 0.00 20 1011.0
20260510071557 45 0 0.0 0.0 0.00 0.62 0.00 20 1010.9
20260510071051 45 0 0.0 0.0 0.00 0.62 0.00 20 1010.9
20260510070551 45 0 0.0 0.0 0.00 0.62 0.00 20 1010.9
20260510070057 44 0 0.0 0.0 0.00 0.62 0.00 20 1011.0
20260510065551 44 0 0.0 0.0 0.00 0.62 0.00 20 1010.9
20260510065051 44 0 0.0 0.0 0.00 0.62 0.00 20 1010.9
20260510064556 44 0 0.0 0.0 0.00 0.62 0.00 20 1010.8
20260510064050 44 0 0.0 0.0 0.00 0.62 0.00 21 1010.7
20260510063551 44 0 0.0 0.0 0.00 0.62 0.00 21 1010.7
20260510063056 44 0 0.0 0.0 0.00 0.62 0.00 21 1010.8
20260510062551 44 0 0.0 0.0 0.00 0.62 0.00 21 1010.7
20260510062050 44 0 0.0 0.0 0.00 0.62 0.00 21 1010.6
20260510061551 44 0 0.0 0.0 0.00 0.62 0.00 21 1010.7
20260510061050 44 0 0.0 0.0 0.00 0.62 0.00 21 1010.7
20260510060551 44 0 0.0 0.0 0.00 0.62 0.00 21 1010.7
20260510060054 44 0 0.0 0.0 0.00 0.62 0.00 21 1010.8
20260510055550 44 0 0.0 0.0 0.00 0.62 0.00 21 1010.8
20260510055050 45 0 0.0 0.0 0.00 0.62 0.00 21 1010.8
20260510054557 45 0 0.0 0.0 0.00 0.62 0.00 21 1011.0
20260510054051 45 0 0.0 0.0 0.00 0.62 0.00 21 1010.9
20260510053550 45 0 0.0 0.0 0.00 0.62 0.00 21 1011.0
20260510053058 45 0 0.0 0.0 0.00 0.62 0.00 21 1011.0
20260510052551 45 0 0.0 0.0 0.00 0.62 0.00 21 1011.1
20260510052051 45 0 0.0 0.0 0.00 0.62 0.00 21 1011.1
20260510051622 45 0 0.0 0.0 0.00 0.62 0.00 21 1010.9
20260510051053 45 0 0.0 0.0 0.00 0.62 0.00 21 1010.9
20260510050550 45 0 0.0 0.0 0.00 0.62 0.00 21 1010.9
20260510050053 45 0 0.0 0.0 0.00 0.62 0.00 20 1010.8
20260510045551 45 0 0.0 0.0 0.00 0.62 0.00 20 1010.8
20260510045050 45 0 0.0 0.0 0.00 0.62 0.00 20 1011.0
20260510044550 45 0 0.0 0.0 0.00 0.62 0.00 20 1011.1
20260510044050 45 0 0.0 0.0 0.00 0.62 0.00 21 1010.9
20260510043550 45 0 0.0 0.0 0.00 0.62 0.00 21 1010.8
20260510043142 45 0 0.0 0.0 0.00 0.62 0.00 21 1011.0
20260510042553 45 0 0.0 0.0 0.00 0.62 0.00 21 1010.9
20260510042052 45 0 0.0 0.0 0.00 0.62 0.00 21 1010.9
20260510041556 45 0 0.0 0.0 0.00 0.62 0.00 21 1010.9
20260510041055 45 0 0.0 0.0 0.00 0.62 0.00 21 1010.9
20260510040551 45 0 0.0 0.0 0.00 0.62 0.00 21 1011.0
20260510040058 45 0 0.0 0.0 0.00 0.62 0.00 21 1011.0
20260510035551 45 0 0.0 0.0 0.00 0.62 0.62 21 1011.0
20260510035053 46 0 0.0 0.0 0.00 0.62 0.62 21 1010.7
20260510034557 46 0 0.0 0.0 0.00 0.62 0.62 21 1010.7
20260510034051 46 0 0.0 0.0 0.00 0.62 0.62 21 1010.7
20260510033552 46 0 0.0 0.0 0.00 0.62 0.62 21 1010.7
20260510033053 46 0 0.0 0.0 0.00 0.62 0.62 21 1010.8
20260510032551 46 0 0.0 0.0 0.00 0.62 0.62 21 1010.9
20260510032054 46 0 0.0 0.0 0.00 0.62 0.62 21 1011.0
20260510031624 46 0 0.0 0.0 0.00 0.62 0.62 21 1010.9
20260510031050 46 0 0.0 0.0 0.00 0.62 0.62 21 1010.9
20260510030551 46 0 0.0 0.0 0.00 0.62 0.62 21 1010.9
20260510030056 46 0 0.0 0.0 0.00 0.62 0.62 21 1010.9
20260510025550 46 0 0.0 0.0 0.00 0.62 0.62 21 1010.9
20260510025050 46 0 0.0 0.0 0.00 0.62 0.62 21 1010.8
20260510024555 46 0 0.0 0.0 0.00 0.62 0.62 21 1010.8
20260510024052 46 0 0.0 0.0 0.00 0.62 0.62 21 1010.9
20260510023550 46 0 0.0 0.0 0.00 0.62 0.62 21 1011.0
20260510023059 45 0 0.0 0.0 0.00 0.62 0.62 21 1011.0
20260510022551 45 0 0.0 0.0 0.00 0.62 0.62 21 1011.0
20260510022051 45 0 0.0 0.0 0.00 0.62 0.62 22 1011.0
20260510021549 45 0 0.0 0.0 0.00 0.62 0.62 22 1010.8
20260510021050 45 0 0.0 0.0 0.00 0.62 0.62 22 1011.0
20260510020551 45 0 0.0 0.0 0.00 0.62 0.62 22 1010.9
20260510020053 45 0 0.0 0.0 0.00 0.62 0.62 23 1010.8
20260510015550 45 0 0.0 0.0 0.00 0.62 0.62 24 1010.9
20260510015050 45 0 0.0 0.0 0.00 0.62 0.62 24 1010.8
20260510014550 45 0 0.0 0.0 0.00 0.62 0.62 24 1011.0
20260510014051 45 0 0.0 0.0 0.00 0.62 0.62 24 1011.1
20260510013551 45 0 0.0 0.0 0.00 0.62 0.62 24 1010.9
20260510013051 45 0 0.0 0.0 0.00 0.62 0.62 24 1011.0
20260510012553 45 0 0.0 0.0 0.00 0.62 0.62 24 1011.0
20260510012050 45 0 0.0 0.0 0.00 0.62 0.62 24 1011.2
20260510011607 45 0 0.0 0.0 0.00 0.62 0.62 24 1011.3
20260510011050 45 0 0.0 0.0 0.00 0.62 0.62 25 1011.2
20260510010554 45 0 0.0 0.0 0.00 0.62 0.62 25 1011.0
20260510010105 45 0 0.0 1.0 0.00 0.62 0.62 25 1010.9
20260510005551 45 0 0.0 1.0 0.00 0.62 0.62 25 1010.8
20260510005051 46 0 0.0 2.0 0.00 0.62 0.62 25 1010.7
20260510004555 46 0 0.0 2.0 0.00 0.62 0.62 25 1010.8
20260510004053 46 0 0.0 2.0 0.00 0.62 0.62 24 1010.5
20260510003551 46 0 0.0 2.0 0.00 0.62 0.62 24 1010.4
20260510003051 46 0 1.0 2.0 0.00 0.62 0.62 24 1010.3
20260510002550 46 111 0.0 2.0 0.00 0.62 0.62 25 1010.3
20260510002050 46 0 0.0 2.0 0.00 0.62 0.62 24 1010.3
20260510001556 46 0 0.0 0.0 0.00 0.62 0.62 24 1010.3
20260510001050 47 0 0.0 5.0 0.00 0.62 0.62 24 1010.0
20260510000550 47 0 0.0 5.0 0.00 0.62 0.62 25 1010.0
20260510000056 47 140 0.0 3.0 0.00 0.62 0.62 25 1009.8
20260509235550 47 0 0.0 2.0 0.00 0.62 0.62 24 1009.8
20260509235050 47 0 0.0 2.0 0.00 0.62 0.62 24 1009.8
20260509234601 48 0 0.0 5.0 0.00 0.62 0.62 24 1009.7
20260509234050 48 0 0.0 5.0 0.00 0.62 0.62 23 1009.6
20260509233549 48 167 0.0 0.0 0.00 0.62 0.62 23 1009.7
20260509233052 48 0 0.0 0.0 0.00 0.62 0.62 22 1009.7
20260509232550 48 0 0.0 0.0 0.00 0.62 0.62 22 1009.8
20260509232050 48 0 0.0 0.0 0.00 0.62 0.62 22 1009.8
20260509231558 48 0 0.0 0.0 0.00 0.62 0.62 22 1009.8
20260509231050 48 0 0.0 0.0 0.00 0.62 0.62 22 1009.9
20260509230550 48 0 0.0 0.0 0.00 0.62 0.62 22 1009.9
20260509230054 48 0 0.0 0.0 0.00 0.62 0.62 21 1009.7
20260509225551 48 0 0.0 0.0 0.00 0.62 0.62 21 1009.8
20260509225054 48 0 0.0 1.0 0.00 0.62 0.62 21 1009.8
20260509224550 48 0 0.0 2.0 0.00 0.62 0.62 21 1009.7
20260509224050 48 0 0.0 2.0 0.00 0.62 0.62 21 1009.8
20260509223550 48 234 0.0 0.0 0.00 0.62 0.62 20 1009.9
20260509223050 48 0 0.0 2.0 0.00 0.62 0.62 20 1009.9
20260509222551 48 0 0.0 3.0 0.00 0.62 0.62 20 1009.8
20260509222050 48 230 1.0 3.0 0.00 0.62 0.62 20 1009.8
20260509221548 48 0 0.0 5.0 0.00 0.62 0.62 20 1009.8
20260509221050 48 0 0.0 5.0 0.00 0.62 0.62 20 1009.8
20260509220549 48 0 0.0 0.0 0.00 0.62 0.62 20 1009.7
20260509220057 48 0 0.0 2.0 0.00 0.62 0.62 19 1009.7
20260509215550 48 0 0.0 3.0 0.00 0.62 0.62 19 1009.8
20260509215055 48 0 0.0 6.0 0.00 0.62 0.62 19 1009.8
20260509214554 48 209 0.0 6.0 0.00 0.62 0.62 19 1009.8
20260509214051 48 199 0.0 4.0 0.00 0.62 0.62 19 1009.9
20260509213550 48 215 1.0 4.0 0.00 0.62 0.62 19 1009.9
20260509213107 48 0 0.0 0.0 0.00 0.62 0.62 19 1010.0
20260509212549 48 0 0.0 0.0 0.00 0.62 0.62 19 1010.0
20260509212050 48 0 0.0 0.0 0.00 0.62 0.62 19 1010.1
20260509211612 48 0 0.0 0.0 0.00 0.62 0.62 19 1010.3
20260509211050 48 0 0.0 0.0 0.01 0.62 0.62 19 1010.3
20260509210551 48 0 0.0 0.0 0.02 0.62 0.62 19 1010.4
20260509210100 47 0 0.0 0.0 0.03 0.62 0.62 19 1010.4
20260509205551 47 0 0.0 0.0 0.04 0.62 0.62 20 1010.3
20260509205051 47 0 0.0 0.0 0.05 0.62 0.62 20 1010.4
20260509204602 47 0 0.0 0.0 0.06 0.62 0.62 20 1010.6
20260509204051 47 0 0.0 0.0 0.07 0.62 0.62 19 1010.7
20260509203551 47 0 0.0 0.0 0.08 0.62 0.62 19 1010.8
20260509203058 47 0 0.0 0.0 0.10 0.62 0.62 20 1010.8
20260509202551 47 0 0.0 0.0 0.11 0.62 0.62 20 1011.0
20260509202050 46 0 0.0 0.0 0.12 0.62 0.62 21 1010.9
20260509201557 46 0 0.0 0.0 0.13 0.62 0.62 21 1010.9
20260509201049 46 0 0.0 0.0 0.14 0.61 0.61 21 1011.0
20260509200550 46 0 0.0 0.0 0.15 0.60 0.60 21 1010.9
20260509195551 46 0 0.0 1.0 0.15 0.58 0.58 21 1011.0
20260509195050 46 0 0.0 1.0 0.14 0.57 0.57 22 1011.1
20260509194601 45 0 0.0 2.0 0.13 0.56 0.56 22 1011.0
20260509194050 45 0 0.0 2.0 0.13 0.55 0.55 22 1011.3
20260509193550 45 0 0.0 4.0 0.12 0.54 0.54 22 1011.2
20260509193053 45 0 1.0 4.0 0.11 0.52 0.52 22 1011.3
20260509192550 45 288 1.0 4.0 0.10 0.51 0.51 22 1011.1
20260509192050 45 0 1.0 4.0 0.09 0.50 0.50 23 1011.0
20260509191551 45 65 0.0 8.0 0.09 0.49 0.49 23 1011.2
20260509191050 45 162 1.0 8.0 0.07 0.47 0.47 22 1011.0
20260509190550 45 90 1.0 4.0 0.05 0.45 0.45 22 1010.9
20260509190100 45 130 1.0 3.0 0.05 0.44 0.44 22 1011.1
20260509185550 45 0 0.0 7.0 0.04 0.43 0.43 22 1011.1
20260509185050 45 0 1.0 7.0 0.04 0.43 0.43 22 1011.0
20260509184554 45 96 1.0 3.0 0.04 0.43 0.43 22 1011.1
20260509184052 45 96 1.0 3.0 0.04 0.42 0.42 22 1011.3
20260509183550 45 96 1.0 3.0 0.04 0.42 0.42 23 1011.4
20260509183057 45 0 1.0 3.0 0.04 0.41 0.41 23 1011.3
20260509182549 45 81 0.0 3.0 0.04 0.41 0.41 23 1011.5
20260509182049 45 77 0.0 3.0 0.04 0.41 0.41 23 1011.4
20260509181607 45 92 0.0 3.0 0.04 0.40 0.40 23 1011.4
20260509181050 44 0 0.0 2.0 0.04 0.40 0.40 23 1011.5
20260509180551 44 119 0.0 3.0 0.05 0.40 0.40 23 1011.5
20260509180100 44 119 1.0 3.0 0.04 0.39 0.39 23 1011.4
20260509175550 44 132 0.0 3.0 0.04 0.39 0.39 23 1011.4
20260509175050 44 133 0.0 4.0 0.05 0.39 0.39 23 1011.5
20260509174553 44 0 0.0 5.0 0.05 0.39 0.39 23 1011.6
20260509174050 44 115 1.0 5.0 0.05 0.38 0.38 24 1011.7
20260509173549 44 137 0.0 5.0 0.05 0.38 0.38 24 1011.7
20260509173103 44 54 0.0 5.0 0.04 0.37 0.37 23 1011.7
20260509172550 44 145 0.0 6.0 0.05 0.37 0.37 24 1011.8
20260509172051 44 0 1.0 6.0 0.05 0.37 0.37 24 1011.8
20260509171607 44 115 1.0 4.0 0.05 0.36 0.36 23 1011.9
20260509171050 44 58 0.0 4.0 0.05 0.36 0.36 23 1012.0
20260509170550 44 0 1.0 4.0 0.04 0.35 0.35 23 1012.0
20260509170057 43 33 0.0 3.0 0.05 0.35 0.35 23 1012.0
20260509165550 43 0 0.0 4.0 0.05 0.35 0.35 24 1012.1
20260509165050 43 17 0.0 4.0 0.05 0.34 0.34 24 1012.0
20260509164554 43 84 0.0 6.0 0.05 0.34 0.34 24 1012.0
20260509164050 43 0 0.0 6.0 0.04 0.33 0.33 25 1012.3
20260509163550 42 0 1.0 5.0 0.05 0.33 0.33 25 1012.1
20260509163059 42 51 0.0 4.0 0.05 0.33 0.33 25 1012.1
20260509162550 42 96 0.0 3.0 0.05 0.32 0.32 25 1012.2
20260509162050 42 0 0.0 2.0 0.05 0.32 0.32 25 1012.3
20260509161550 42 67 0.0 2.0 0.04 0.31 0.31 25 1012.3
20260509161049 42 0 0.0 0.0 0.05 0.31 0.31 25 1012.4
20260509160550 41 0 0.0 0.0 0.05 0.31 0.31 26 1012.4
20260509160054 41 0 0.0 0.0 0.05 0.30 0.30 26 1012.5
20260509155548 41 0 0.0 0.0 0.05 0.30 0.30 26 1012.6
20260509155052 41 0 0.0 2.0 0.04 0.29 0.29 26 1012.6
20260509154555 41 0 0.0 2.0 0.05 0.29 0.29 27 1012.7
20260509154051 41 65 0.0 2.0 0.05 0.29 0.29 27 1012.8
20260509153550 40 0 0.0 2.0 0.04 0.28 0.28 27 1012.7